Find Starlink 11282

NORAD ID: 60992 Int'l Des: 2024-158 Owner: SPXS Country: US Constellation: starlink operational
LEOCIRCULAR

現在のビュー

3D地球を読み込み中...

About Starlink 11282

Starlink 11282 (NORAD 60992) is a starlink constellation satellite (v2 mini d2c) launched Sep 5, 2024 by SPXS of US. It operates in LEO, CIRCULAR orbit with a mass of 960.00 kg.

Starlink 11282について

説明を読み込み中...

次回通過

Passes for default location (London). Set your location on the main map for personalized predictions.

高度履歴

Loading altitude history...

軌道要素

1 60992U 24158C 26171.31480602 -.00001575 00000-0 -81442-5 0 9991
2 60992 53.1598 135.3181 0001174 96.9852 263.1299 15.69698120103714
Epoch: Jun 20, 2026 • Age: 27 hours

現在のステータス

高度 374.1 km
速度 7.68 km/s
衛星直下点 -41.18°S, 16.99°E
打ち上げ日 Sep 5, 2024
運用期間 1.7 years
タイプ internet

技術仕様

分類 Payload
質量 960.00 kg
乾燥質量 910.00 kg
総質量 960.00 kg
長さ 0.30 m
直径 4.10 m
スパン 29.00 m
形状 Box + pan
製造者 SPXS
バスタイプ Starlink V2MD
フェーズステータス In Orbit
所有者/国 SPXS/US

Most Searched